When you browse on this site, cookies collect data to enhance your experience and personalize the content and advertising you see.
Visit our Privacy Policy to learn more. By continuing to use the site, you agree to this use of cookies and data.
  • In Hungary
  • List of Countries
  • For 7 days
  • Water Temperature
  • Weather Map
  • News
  • Weather Widgets
  • user-avatar
    Login

    Hourly Weather Nizhnyaya Lyubovsha

    Today, 17 August, Saturday

    Time Temperature Precipitation Wind Pressure Humidity
    00:00 +19°C° 0 mm 4 mps 742 mmHg 93%
    01:00 +19°C° 0 mm 4 mps 742 mmHg 92%
    02:00 +19°C° 0 mm 4 mps 742 mmHg 85%
    03:00 +19°C° 0.5 mm 4 mps 742 mmHg 87%
    04:00 +19°C° 0.5 mm 3 mps 742 mmHg 89%
    05:00 +19°C° 0.5 mm 3 mps 742 mmHg 91%
    06:00 +19°C° 0.2 mm 3 mps 742 mmHg 89%
    07:00 +20°C° 0.2 mm 3 mps 742 mmHg 86%
    08:00 +21°C° 0.2 mm 3 mps 742 mmHg 83%
    09:00 +21°C° 0.4 mm 3 mps 742 mmHg 83%
    10:00 +21°C° 0.4 mm 3 mps 742 mmHg 82%
    11:00 +22°C° 0.4 mm 3 mps 742 mmHg 82%
    12:00 +21°C° 0.4 mm 3 mps 742 mmHg 85%
    13:00 +21°C° 0.4 mm 3 mps 742 mmHg 87%
    14:00 +20°C° 0.4 mm 3 mps 742 mmHg 90%
    15:00 +20°C° 0.7 mm 2 mps 742 mmHg 91%
    16:00 +20°C° 0.7 mm 2 mps 742 mmHg 92%
    17:00 +20°C° 0.7 mm 2 mps 742 mmHg 93%
    18:00 +19°C° 0.2 mm 2 mps 742 mmHg 94%
    19:00 +19°C° 0.2 mm 2 mps 742 mmHg 95%
    20:00 +19°C° 0.2 mm 1 mps 742 mmHg 96%
    21:00 +19°C° 0 mm 1 mps 742 mmHg 95%
    22:00 +19°C° 0 mm 1 mps 742 mmHg 95%
    23:00 +19°C° 0 mm 1 mps 742 mmHg 95%

    Tomorrow, 18 August, Sunday

    Time Temperature Precipitation Wind Pressure Humidity
    00:00 +18°C° 0 mm 1 mps 742 mmHg 95%
    01:00 +18°C° 0 mm 1 mps 742 mmHg 95%
    02:00 +18°C° 0 mm 1 mps 742 mmHg 95%
    03:00 +18°C° 0 mm 1 mps 742 mmHg 95%
    04:00 +18°C° 0 mm 1 mps 742 mmHg 96%
    05:00 +18°C° 0 mm 1 mps 743 mmHg 97%
    06:00 +19°C° 0 mm 1 mps 743 mmHg 94%
    07:00 +20°C° 0 mm 1 mps 743 mmHg 91%
    08:00 +21°C° 0 mm 1 mps 743 mmHg 88%
    09:00 +20°C° 0 mm 2 mps 743 mmHg 87%
    10:00 +20°C° 0 mm 2 mps 744 mmHg 85%
    11:00 +21°C° 0 mm 2 mps 744 mmHg 84%
    12:00 +21°C° 0.1 mm 2 mps 744 mmHg 82%
    13:00 +23°C° 0.1 mm 2 mps 744 mmHg 80%
    14:00 +22°C° 0.1 mm 3 mps 745 mmHg 79%
    15:00 +22°C° 0.4 mm 3 mps 745 mmHg 78%
    16:00 +22°C° 0.4 mm 3 mps 745 mmHg 78%
    17:00 +22°C° 0.4 mm 3 mps 746 mmHg 77%
    18:00 +21°C° 0.2 mm 3 mps 746 mmHg 82%
    19:00 +20°C° 0.2 mm 2 mps 747 mmHg 87%
    20:00 +18°C° 0.2 mm 2 mps 747 mmHg 91%
    21:00 +18°C° 0 mm 2 mps 747 mmHg 92%
    22:00 +17°C° 0 mm 2 mps 748 mmHg 93%
    23:00 +17°C° 0 mm 2 mps 748 mmHg 94%

    Day after tomorrow, 19 August, Monday

    Time Temperature Precipitation Wind Pressure Humidity
    00:00 +16°C° 0 mm 2 mps 748 mmHg 94%
    01:00 +16°C° 0 mm 2 mps 749 mmHg 93%
    02:00 +16°C° 0 mm 2 mps 749 mmHg 93%
    03:00 +15°C° 0 mm 2 mps 749 mmHg 93%
    04:00 +15°C° 0 mm 2 mps 750 mmHg 93%
    05:00 +15°C° 0 mm 2 mps 750 mmHg 93%
    06:00 +18°C° 0 mm 1 mps 750 mmHg 87%
    07:00 +19°C° 0 mm 1 mps 751 mmHg 81%
    08:00 +21°C° 0 mm 1 mps 751 mmHg 76%
    09:00 +22°C° 0 mm 1 mps 751 mmHg 70%
    10:00 +23°C° 0 mm 1 mps 752 mmHg 65%
    11:00 +25°C° 0 mm 1 mps 752 mmHg 59%
    12:00 +25°C° 0 mm 1 mps 752 mmHg 57%
    13:00 +26°C° 0 mm 1 mps 752 mmHg 54%
    14:00 +27°C° 0 mm 1 mps 752 mmHg 52%
    15:00 +26°C° 0 mm 1 mps 752 mmHg 54%
    16:00 +26°C° 0 mm 1 mps 752 mmHg 57%
    17:00 +26°C° 0 mm 1 mps 752 mmHg 59%
    18:00 +24°C° 0 mm 1 mps 752 mmHg 63%
    19:00 +23°C° 0 mm 1 mps 752 mmHg 68%
    20:00 +21°C° 0 mm 1 mps 752 mmHg 72%
    21:00 +21°C° 0 mm 1 mps 752 mmHg 74%
    22:00 +20°C° 0 mm 1 mps 753 mmHg 76%
    23:00 +20°C° 0 mm 1 mps 753 mmHg 78%

    20 August, Tuesday

    Time Temperature Precipitation Wind Pressure Humidity
    00:00 +20°C° 0 mm 1 mps 753 mmHg 80%
    01:00 +18°C° 0 mm 2 mps 753 mmHg 81%
    02:00 +18°C° 0 mm 2 mps 753 mmHg 82%
    03:00 +18°C° 0 mm 2 mps 753 mmHg 83%
    04:00 +18°C° 0 mm 2 mps 753 mmHg 84%
    05:00 +18°C° 0 mm 2 mps 753 mmHg 84%
    06:00 +19°C° 0 mm 2 mps 753 mmHg 79%
    07:00 +21°C° 0 mm 2 mps 753 mmHg 74%
    08:00 +22°C° 0 mm 3 mps 754 mmHg 68%
    09:00 +24°C° 0 mm 3 mps 753 mmHg 64%
    10:00 +26°C° 0 mm 3 mps 753 mmHg 59%
    11:00 +27°C° 0 mm 3 mps 753 mmHg 54%
    12:00 +27°C° 0 mm 3 mps 753 mmHg 53%
    13:00 +28°C° 0 mm 3 mps 753 mmHg 51%
    14:00 +28°C° 0 mm 3 mps 753 mmHg 50%
    15:00 +28°C° 0 mm 3 mps 753 mmHg 54%
    16:00 +27°C° 0 mm 3 mps 753 mmHg 57%
    17:00 +27°C° 0 mm 3 mps 752 mmHg 61%
    18:00 +25°C° 0 mm 2 mps 753 mmHg 65%
    19:00 +24°C° 0 mm 2 mps 753 mmHg 70%
    20:00 +21°C° 0 mm 2 mps 753 mmHg 74%
    21:00 +21°C° 0 mm 2 mps 753 mmHg 75%
    22:00 +20°C° 0 mm 2 mps 753 mmHg 77%
    23:00 +20°C° 0 mm 2 mps 753 mmHg 78%

    21 August, Wednesday

    Time Temperature Precipitation Wind Pressure Humidity
    00:00 +19°C° 0 mm 2 mps 753 mmHg 79%
    01:00 +19°C° 0 mm 2 mps 753 mmHg 80%
    02:00 +19°C° 0 mm 3 mps 753 mmHg 81%
    03:00 +19°C° 0 mm 3 mps 752 mmHg 82%
    04:00 +18°C° 0 mm 3 mps 752 mmHg 82%
    05:00 +18°C° 0 mm 3 mps 752 mmHg 83%
    06:00 +20°C° 0 mm 4 mps 752 mmHg 78%
    07:00 +21°C° 0 mm 4 mps 752 mmHg 74%
    08:00 +23°C° 0 mm 4 mps 752 mmHg 69%
    09:00 +25°C° 0 mm 4 mps 752 mmHg 66%
    10:00 +27°C° 0 mm 4 mps 752 mmHg 63%
    11:00 +28°C° 0 mm 4 mps 752 mmHg 60%
    12:00 +29°C° 0 mm 5 mps 752 mmHg 60%
    13:00 +29°C° 0 mm 5 mps 751 mmHg 59%
    14:00 +30°C° 0 mm 5 mps 751 mmHg 59%
    15:00 +30°C° 0 mm 5 mps 751 mmHg 61%
    16:00 +29°C° 0 mm 4 mps 750 mmHg 64%
    17:00 +29°C° 0 mm 3 mps 750 mmHg 67%
    18:00 +28°C° 0 mm 3 mps 750 mmHg 72%
    19:00 +26°C° 0 mm 3 mps 750 mmHg 77%
    20:00 +25°C° 0 mm 3 mps 750 mmHg 81%
    21:00 +24°C° 0 mm 3 mps 750 mmHg 83%
    22:00 +24°C° 0 mm 3 mps 750 mmHg 84%
    23:00 +22°C° 0 mm 3 mps 750 mmHg 85%

    22 August, Thursday

    Time Temperature Precipitation Wind Pressure Humidity
    00:00 +22°C° 0 mm 3 mps 749 mmHg 87%
    01:00 +21°C° 0 mm 2 mps 749 mmHg 89%
    02:00 +21°C° 0 mm 2 mps 749 mmHg 90%
    03:00 +21°C° 0 mm 2 mps 749 mmHg 90%
    04:00 +21°C° 0 mm 1 mps 749 mmHg 90%
    05:00 +21°C° 0 mm 1 mps 749 mmHg 90%
    06:00 +23°C° 0 mm 1 mps 749 mmHg 84%
    07:00 +25°C° 0 mm 1 mps 749 mmHg 77%
    08:00 +26°C° 0 mm 1 mps 749 mmHg 70%
    09:00 +28°C° 0 mm 1 mps 749 mmHg 66%
    10:00 +29°C° 0 mm 2 mps 749 mmHg 61%
    11:00 +30°C° 0 mm 2 mps 749 mmHg 57%
    12:00 +31°C° 0 mm 3 mps 749 mmHg 56%
    13:00 +31°C° 0 mm 3 mps 749 mmHg 55%
    14:00 +33°C° 0 mm 3 mps 749 mmHg 54%
    15:00 +31°C° 0 mm 3 mps 749 mmHg 58%
    16:00 +30°C° 0 mm 3 mps 750 mmHg 63%
    17:00 +29°C° 0 mm 4 mps 750 mmHg 67%
    18:00 +28°C° 0 mm 4 mps 750 mmHg 71%
    19:00 +26°C° 0 mm 5 mps 750 mmHg 75%
    20:00 +25°C° 0 mm 5 mps 751 mmHg 80%
    21:00 +23°C° 0 mm 5 mps 751 mmHg 80%
    22:00 +22°C° 0 mm 5 mps 751 mmHg 81%
    23:00 +21°C° 0 mm 5 mps 752 mmHg 81%
    Show more